www.pogodaiklimat.ru

Погода и климат >> Архив погоды >> Россия >> Амурская область >> Сковородино


АРХИВ ПОГОДЫ в Сковородино

Время (UTC), дата Ветер
(напр.,м/с)
 
Видим.   Явления Облачность Т
(С)
Тd
(С)
f
(%)
Тe
(С)
Тes
(С)
Комфортность P
(гПа)
Po
(гПа)
Тmin
(С)
Tmax
(С)
R
(мм)
R24
(мм)
S
(см)
03 12.08 З 2 10 км дым ясно +23.5 +14.5 57 +26 +39 жарко 1005.1 960.6
06 12.08 ЮЗ 3 10 км дым ясно +27.5 +15.2 47 +30 +38 жарко 1003.7 959.8
09 12.08 Ю 3 20 км дым 6/0
[Ac lent]
+27.3 +15.3 48 +30 +31 душно 1003.0 959.1
12 12.08 СВ 3 20 км дым 6/0
[Ac lent Ci fib]
+17.9 +16.1 89 +18 +18 1004.6 959.4 +28.1
18 12.08 СВ 2 20 км дым ясно +12.8 +12.0 95 +12 +12 1005.5 959.2
21 12.08 В 2 20 км 6/4 600 м
[Cb cap Ac lent Ci fib]
+10.9 +10.1 95 +9 +10 1006.1 959.5
00 13.08 СВ 1 20 км 1/0
[Ci fib]
+20.1 +15.3 74 +24 +30 комфорт 1004.0 959.0 +10.5
03 13.08 Ю 3 20 км 1/1 1000 м
[Cu hum]
+27.2 +14.9 47 +30 +39 душно 1001.7 957.9
06 13.08 Ю 4 20 км 6/5 600 м
[Sc diur, vesp Ac trans]
+28.8 +12.2 36 +30 +33 жарко 1000.5 956.9
09 13.08 Ю 1 20 км 9/8 600 м
[Cb cap Ac trans]
+26.2 +16.2 54 +30 +30 душно 1000.3 956.4
12 13.08 СВ 1 20 км 9/9 600 м
[Cb cap]
+21.0 +16.6 76 +26 +26 душно 1001.4 956.8 +29.2
15 13.08 штиль 0 20 км {ливн. осадки} 8/5 600 м
[Cb cap Ac trans]
+17.2 +15.9 92 +17 +17 1001.8 956.5
18 13.08 штиль 0 20 км {ливн. осадки} 3/0
[Ac trans]
+16.0 +15.2 95 +16 +16 1001.0 956.6
21 13.08 штиль 0 200 м туман 4/0
[Ac trans]
+14.7 +13.9 95 +14 +14 1002.3 956.6
00 14.08 З 1 200 м туман 9/9 600 м
[Cb cap]
+16.0 +15.2 95 +17 +17 1002.6 957.1 +14.5 0.0
03 14.08 ЮЗ 3 20 км {туман} 4/3 600 м
[Cu hum Ci fib]
+23.6 +11.0 45 +25 +32 комфорт 1000.3 956.0
06 14.08 З 4 50 км 4/3 600 м
[Cu hum Ci sp]
+24.9 +8.4 35 +25 +30 комфорт 999.9 955.7
09 14.08 ЮЗ 2 50 км 3/1 600 м
[Cu med, cong Ci fib]
+25.2 +8.6 35 +26 +27 жарко 999.9 955.7
12 14.08 СВ 2 50 км 3/0
[Ac lent]
+12.7 +10.1 84 +12 +12 1002.5 956.4 +25.7
15 14.08 СВ 2 50 км ясно +9.2 +8.1 93 +7 +7 1004.0 957.2
18 14.08 СВ 1 50 км ясно +5.9 +5.2 95 +5 +5 1005.3 958.0
21 14.08 С 2 20 км ясно +4.2 +3.6 96 +1 +1 1007.2 959.4
00 15.08 С 2 50 км 1/0
[Ci fib]
+14.9 +10.1 73 +15 +20 1005.5 959.6 +4.0
03 15.08 ЮЗ 1 50 км 3/3 600 м
[Cu med, cong]
+24.2 +12.5 48 +26 +36 жарко 1003.8 959.4
06 15.08 З 2 50 км 6/6 600 м
[Cu med, cong]
+27.2 +9.1 32 +27 +31 жарко 1002.7 958.7
09 15.08 С 4
{10}
50 км 3/3 600 м
[Cu med, cong]
+23.4 +12.4 50 +26 +27 жарко 1004.3 959.8
12 15.08 С 1 50 км 1/0
[Ac lent Ci fib]
+14.7 +11.1 79 +15 +15 1006.5 960.6 +27.7
15 15.08 СВ 2 50 км 4/0
[Ci fib]
+9.6 +8.8 95 +8 +8 1008.0 961.2
18 15.08 СВ 2 50 км 3/0
[Ci fib]
+6.6 +5.9 95 +4 +4 1008.9 961.5
21 15.08 С 2 50 км дымка 6/0
[Ac trans Ci fib]
+6.2 +5.3 94 +4 +4 1009.8 962.3
00 16.08 С 1 50 км 9/8 600 м
[Cb cap Ac trans]
+14.5 +11.8 84 +15 +16 1008.0 962.5 +6.2
03 16.08 З 1 50 км 4/4 600 м
[Cb cap Ac As]
+23.9 +13.4 52 +26 +35 жарко 1005.6 961.1
06 16.08 С 3 50 км 6/5 600 м
[Cb cap Ci fib]
+24.4 +12.7 48 +26 +30 жарко 1004.3 959.9
09 16.08 В 5 50 км 4/1 600 м
[Cb cap Ci fib]
+24.1 +11.8 46 +26 +26 жарко 1003.8 959.4
12 16.08 В 3 50 км 3/0
[Ci fib]
+16.2 +11.8 75 +16 +16 1005.9 960.3 +26.4
15 16.08 СВ 1 50 км 3/0
[Ci fib]
+11.5 +10.6 94 +11 +11 1006.3 959.9
21 16.08 СВ 1 20 км 9/4 600 м
[Cb cap Ac lent Ci fib]
+13.4 +10.5 83 +14 +14 1004.4 958.4
00 17.08 СВ 4 20 км 10/4 600 м
[Cb cap Ac As]
+17.1 +11.5 70 +17 +17 1003.5 958.1 +10.4
03 17.08 СВ 5 20 км {гроза, ливн. осадки} 10/8 600 м
[Cb cap Ac lent Ci ing]
+17.7 +11.0 65 +17 +18 1002.9 957.5
09 17.08 СВ 3 50 км {ливн. осадки} 9/8 600 м
[Cb cap Ac lent]
+17.8 +11.6 67 +18 +18 1002.1 956.8
12 17.08 СВ 1 50 км 9/8 600 м
[Cb cap Ac As]
+12.0 +10.1 88 +12 +12 1004.1 957.8 +19.3
00 18.08 ЮВ 1 50 км 9/9 600 м
[Cb cap]
+13.3 +8.6 73 +14 +14 1007.1 960.8 +8.2
12 18.08 С 2 50 км 6/0
[Ac trans]
+10.2 +7.4 83 +9 +9 1009.5 962.7 +19.8
00 19.08 СВ 1 50 км в посл. час туман 4/0
[Ac lent Ci fib]
+10.2 +7.3 82 +10 +14 1012.9 965.9 +1.8

 

Местоположение метеостанции Сковородино (Амурская область, Россия): широта 54.00 долгота 123.90 высота над уровнем моря 397 м.

В архиве по умолчанию представлена погода в Сковородино за последнюю неделю. Архивные данные за месяц целиком и за предыдущие месяцы, начиная с января 2011 года, Вы можете получить, выбрав интересующий диапазон дат из раскрывающегося списка и нажав кнопку "Ввод!".


*Определитесь, кто Вы:
робот инопланетянин человек

Внимание! Время в таблицах - всемирное. Для получения местного времени необходимо прибавить поправку, которая равна 9 ч.

Смотрите также архив погоды в соседних городах и на ближайших метеорологических станциях:

Погода в Джалинде (Амурская область, Россия) (59 км)
Погода в Игнасино (Амурская область, Россия) (115 км)
Погода в Ерофей Павловиче (Амурская область, Россия) (131 км)
Погода в Тынде (Амурская область, Россия) (139 км)
Погода в Магдагачи (Амурская область, Россия) (139 км)
Погода в Покровке (Забайкальский край, Россия) (174 км)
Погода в Тыгде (Амурская область, Россия) (188 км)
Погода в Черняево (Амурская область, Россия) (194 км)
Погода в Амазаре (Забайкальский край, Россия) (203 км)
Погода в Лопче (Амурская область, Россия) (211 км)

Пояснения к столбцам:

Ветер - указаны скорость ветра в м/с - средняя за 10 мин, порывы в срок и между сроками (в фигурных скобках) и направление, откуда дует ветер: С - северный, СВ - северо-восточный, В - восточный, ЮВ - юго-восточный, Ю - южный, ЮЗ - юго-западный, З - западный, СЗ - северо-западный.
Видимость - горизонтальная дальность видимости в метрах или километрах. При видимости от 1 до 10 км при отсутствии осадков обычно наблюдается дымка, при ухудшении видимости до 1 км и менее - туман. В сухую погоду видимость может ухудшаться дымом, пылью или мглою.
Явления - указаны атмосферные явления, наблюдавшиеся в срок или в последний час перед сроком; фигурными скобками обозначены явления, наблюдавшиеся между сроками (за 1-3 часа до срока); квадратными скобками обозначены град или гололедные отложения с указанием их диаметра в мм.
Облачность - указаны через наклонную черту общая и нижняя облачность в баллах и высота нижней границы облаков в метрах; квадратными скобками обозначены формы облаков: Ci - перистые, Cs - перисто-слоистые, Cc - перисто-кучевые, Ac - высококучевые, As - высокослоистые, Sc - слоисто-кучевые, Ns - слоисто-дождевые, Cu - кучевые, Cb - кучево-дождевые. Подробнее классификацию облаков см. в Атласе облаков (PDF).
T - Температура воздуха - температура, измеренная на высоте 2 м над землей.
Td - Температура точки росы - температура, при понижении до которой содержащийся в воздухе водяной пар достигнет насыщения.
f - Относительная влажность воздуха - влажноcть воздуха, измеренная на высоте 2 м над землей.
Te - Эффективная температура - температура, которую ощущает одетый по сезону человек в тени. Характеристика душности погоды. При расчете учитывается влияние влажности воздуха и скорости ветра на теплоощущения человека.
Tes - Эффективная температура на солнце - температура, которую ощущает человек, с поправкой на солнечный нагрев. Характеристика знойности погоды. Зависит от высоты солнца над горизонтом, облачности и скорости ветра. Ночью, в пасмурную погоду, а также при ветре 12 м/с и более поправка равна нулю.
P - Атмосферное давление - приведенное к уровню моря атмосферное давление.
Po - Атмосферное давление - измеренное на уровне метеостанции атмосферное давление.
Tmin - Минимальная температура - минимум температуры воздуха на высоте 2 м над землей.
Tmax - Максимальная температура - максимум температуры воздуха на высоте 2 м над землей.
R - Количество осадков - Количество выпавших осадков за период времени, мм. При наведении курсора мыши на число - период времени, за который выпало указанное количество осадков.
R24 - Количество осадков - Количество выпавших осадков за 24 часа, мм.
S - Снежный покров - Высота снежного покрова, см. При наведении курсора мыши на число - состояние снежного покрова и степень покрытия местности в баллах.